Погода в Барлетте

Италия     41°19′12″N   16°16′27″E
темп.,
°C
ветер,
м/с
пор.,
м/с
влажн.,
%
обл.,
%
осадки,
мм/ч
давл.,
гПа
погр.,
м
10 апреля, сб
сб1023:00+8ююз36575 0.0 1027111
02:00+7юз33565 0.0 102657
05:00+6ююз226183 0.0 102541
08:00+9ю1257100 0.0 102589
11:00+13всв234730 0.0 1025807
14:00+15св434727 0.0 1024888
17:00+15св44598 0.0 1023522
20:00+11ю59719 0.0 1023216
11 апреля, вс
вс1123:00+10ю4775100 0.0 1023142
02:00+9ю117967 0.0 102246
05:00+8ююз11815 0.0 102143
08:00+11ю247262 0.0 1021182
11:00+17ю134699 0.0 1021712
14:00+19ссз034499 0.0 1020999
17:00+18всв1253100 0.0 1020495
20:00+14ю4773100 0.0 1021146
12 апреля, пн
пн1223:00+12ююз248099 0.0 102169
02:00+12ю1281100 0.0 102043
05:00+10юз2287100 0.0 101929
08:00+13ю1273100 0.0 1019105
11:00+17ссв2258100 0.0 1019646
14:00+19сз2451100 0.0 1018989
17:00+17с2264100 0.0 1017195
20:00+16ю3669100 0.0 1017136
13 апреля, вт
вт1323:00+14ююз4772100 0.0 1017148
02:00+14ю486898 0.0 1016151
05:00+14ююз71460100 0.1 1015535
08:00+14ю496764 0.1 1015446
11:00+17юз7115499 0.1 10141724
14:00+17зюз794522 0.4 10141672
17:00+16зюз894428 0.0 10131684
20:00+10зюз48665 0.0 1015230
14 апреля, ср
ср1423:00+8зюз5107084 0.0 1016348
02:00+8з6119096 0.4 1017740
05:00+6зсз9138824 0.2 1018566
08:00+7зсз7117869 0.2 1019967
11:00+9зсз9116982 0.1 10201331
14:00+11сз91052100 0.2 10201853
17:00+11сз910477 0.0 10191677
20:00+7зсз59642 0.0 1021444